Temperature
-5 -5 -5 -5 -5 -6 -6 -5 -4 -4 -5 -4 -5 -6 -5 -5 -5 -5 -4 -4 -4 -4 -4 -4 -4 -4 -4 -4 -4 -4 -4 -4 -4 -4 -4 -4 -4 -4 -4 -4 -3 -3 -3 -3
-5 -5 -5 -5 -4 -5 -5 -5 -6 -5 -5 -5 -5 -5 -5 -5 -5 -5 -5 -5 -5 -5 -5 -5 -5 -5 -5 -5 -5 -5 -5 -5 -4 -4 -4 -4 -4 -4 -4 -4 -4 -4 -4 -4
-5 -6 -5 -4 -5 -5 -6 -7 -6 -5 -5 -7 -7 -6 -6 -5 -5 -6 -5 -5 -5 -5 -5 -5 -5 -5 -5 -5 -5 -5 -5 -5 -5 -5 -5 -5 -5 -4 -5 -5 -5 -4 -4 -4
-6 -5 -4 -3 -6 -6 -6 -7 -8 -7 -7 -7 -6 -6 -5 -5 -5 -5 -6 -6 -6 -6 -6 -6 -6 -6 -6 -6 -6 -6 -6 -6 -6 -6 -5 -5 -5 -5 -5 -5 -5 -5 -5 -4
-6 -6 -5 -5 -6 -7 -7 -6 -8 -8 -7 -7 -6 -6 -5 -5 -5 -6 -6 -6 -6 -6 -6 -6 -6 -6 -6 -6 -6 -6 -6 -6 -6 -6 -6 -6 -6 -6 -6 -6 -6 -5 -5 -5
-7 -6 -4 -3 -7 -7 -7 -6 -7 -7 -7 -7 -8 -7 -6 -5 -6 -6 -6 -6 -6 -7 -7 -7 -7 -7 -7 -7 -7 -7 -6 -6 -6 -6 -6 -6 -6 -6 -6 -6 -6 -6 -5 -5
-8 -7 -6 -6 -8 -7 -5 -4 -6 -6 -6 -7 -8 -7 -6 -6 -6 -6 -6 -7 -7 -7 -7 -7 -7 -7 -7 -7 -7 -7 -7 -7 -7 -7 -7 -7 -7 -6 -7 -6 -6 -6 -6 -6
-8 -7 -5 -7 -8 -7 -6 -5 -6 -6 -6 -7 -7 -6 -6 -6 -7 -7 -7 -7 -7 -7 -7 -8 -8 -8 -8 -8 -8 -8 -8 -7 -7 -7 -7 -7 -7 -7 -7 -7 -6 -6 -6 -6
-7 -5 -6 -6 -6 -5 -5 -6 -6 -6 -6 -7 -7 -7 -7 -7 -7 -7 -8 -8 -8 -8 -8 -8 -8 -8 -8 -8 -8 -8 -8 -8 -7 -7 -7 -7 -7 -7 -7 -7 -7 -7 -7 -7
-9 -8 -7 -6 -6 -5 -5 -6 -6 -6 -7 -7 -7 -7 -8 -8 -8 -8 -8 -8 -8 -8 -9 -8 -8 -9 -9 -9 -9 -8 -8 -8 -8 -8 -8 -8 -8 -8 -8 -8 -8 -8 -8 -8
-9 -9 -7 -6 -5 -5 -6 -6 -6 -6 -7 -7 -8 -8 -8 -8 -8 -9 -9 -9 -9 -9 -9 -9 -9 -9 -9 -9 -9 -9 -9 -9 -8 -8 -8 -8 -8 -8 -8 -8 -8 -8 -8 -8
-7 -6 -7 -6 -5 -6 -6 -6 -7 -7 -7 -7 -8 -8 -8 -9 -9 -9 -9 -9 -9 -9 -9 -9 -9 -9 -9 -9 -9 -9 -9 -9 -9 -9 -9 -9 -9 -8 -8 -9 -8 -9 -9 -9
-5 -5 -6 -6 -6 -6 -6 -7 -7 -7 -7 -8 -8 -8 -9 -9 -9 -9 -9 -10 -10 -10 -10 -10 -10 -10 -10 -10 -10 -10 -10 -10 -10 -9 -9 -9 -9 -9 -9 -9 -9 -9 -9 -9
-6 -6 -6 -6 -6 -7 -7 -7 -7 -8 -8 -8 -8 -9 -9 -9 -9 -9 -10 -10 -10 -10 -10 -10 -10 -10 -10 -10 -10 -10 -10 -10 -10 -10 -10 -10 -10 -10 -10 -10 -9 -9 -9 -9
-7 -7 -7 -7 -7 -7 -8 -8 -8 -8 -8 -9 -9 -9 -9 -10 -10 -10 -10 -10 -10 -10 -10 -10 -11 -11 -11 -11 -11 -11 -11 -10 -10 -10 -10 -10 -10 -10 -10 -10 -10 -10 -10 -10
-7 -7 -7 -8 -8 -8 -8 -8 -8 -8 -9 -9 -9 -10 -10 -10 -10 -10 -10 -11 -11 -11 -11 -11 -11 -11 -11 -11 -11 -11 -11 -11 -11 -11 -11 -11 -11 -11 -11 -11 -11 -11 -11 -10
-8 -8 -8 -8 -8 -8 -9 -9 -9 -9 -9 -9 -10 -10 -10 -10 -10 -11 -11 -11 -11 -11 -11 -12 -12 -12 -12 -12 -12 -11 -11 -11 -11 -11 -11 -11 -11 -11 -11 -11 -11 -11 -11 -11
-7 -8 -8 -8 -8 -9 -9 -9 -9 -10 -10 -10 -10 -10 -11 -11 -11 -11 -11 -11 -12 -12 -12 -12 -12 -12 -12 -12 -12 -12 -12 -12 -12 -12 -12 -12 -12 -12 -12 -12 -12 -12 -11 -11
-8 -8 -8 -9 -9 -9 -9 -9 -10 -10 -10 -10 -11 -11 -11 -11 -11 -12 -12 -12 -12 -12 -12 -12 -12 -12 -12 -12 -12 -12 -12 -12 -12 -12 -12 -12 -12 -12 -12 -12 -12 -12 -12 -12
-8 -8 -9 -9 -9 -9 -10 -10 -10 -10 -11 -11 -11 -11 -11 -12 -12 -12 -12 -12 -12 -13 -13 -13 -13 -13 -13 -13 -13 -13 -13 -13 -12 -12 -12 -12 -12 -12 -12 -12 -12 -12 -12 -12
-9 -9 -9 -9 -9 -10 -10 -10 -11 -11 -11 -11 -12 -12 -12 -12 -12 -12 -12 -12 -12 -13 -13 -13 -13 -13 -13 -13 -13 -13 -13 -13 -13 -13 -13 -13 -13 -13 -13 -13 -13 -13 -13 -13
-9 -9 -9 -10 -10 -10 -10 -11 -11 -11 -11 -12 -12 -12 -12 -12 -12 -12 -13 -13 -13 -13 -13 -13 -13 -14 -14 -14 -14 -14 -14 -13 -13 -13 -13 -13 -13 -13 -13 -13 -13 -13 -13 -13
-9 -9 -10 -10 -10 -11 -11 -11 -11 -12 -12 -12 -12 -12 -13 -13 -13 -13 -13 -13 -13 -13 -14 -14 -14 -14 -14 -14 -14 -14 -14 -14 -14 -14 -14 -14 -14 -14 -14 -14 -14 -14 -14 -13
-10 -10 -10 -11 -11 -11 -11 -11 -12 -12 -12 -12 -13 -13 -13 -13 -13 -13 -14 -14 -14 -14 -14 -14 -14 -14 -14 -14 -14 -14 -14 -14 -14 -14 -14 -14 -14 -14 -14 -14 -14 -14 -14 -14
-10 -10 -11 -11 -11 -11 -12 -12 -12 -12 -12 -13 -13 -13 -13 -13 -14 -14 -14 -14 -14 -14 -14 -14 -14 -14 -14 -14 -15 -15 -15 -15 -15 -15 -15 -15 -15 -15 -14 -14 -14 -14 -14 -14
-11 -11 -11 -11 -12 -12 -12 -12 -13 -13 -13 -13 -13 -13 -13 -14 -14 -14 -14 -14 -14 -14 -14 -14 -15 -15 -15 -15 -15 -15 -15 -15 -15 -15 -15 -15 -15 -15 -15 -15 -15 -15 -14 -14
-11 -11 -12 -12 -12 -12 -13 -13 -13 -13 -13 -13 -14 -14 -14 -14 -14 -14 -14 -14 -14 -15 -15 -15 -15 -15 -15 -15 -15 -15 -15 -15 -15 -15 -15 -15 -15 -15 -15 -15 -15 -15 -15 -15
Wind_Speed
5 4 3 5 6 6 8 8 8 8 8 11 8 6 6 5 5 6 6 6 6 6 6 5 5 5 5 6 6 6 5 5 6 5 5 5 6 6 6 6 6 6 6 5
3 2 3 6 8 8 9 7 9 9 11 8 6 4 4 5 5 6 7 7 7 7 6 6 6 6 6 6 6 5 5 6 6 6 6 5 6 6 6 6 5 5 6 6
3 4 4 7 8 9 6 6 7 10 9 4 5 6 6 6 6 6 7 7 7 7 7 7 6 6 6 6 6 6 6 6 6 6 6 6 6 6 6 6 6 6 6 6
2 3 5 6 1 4 6 7 8 6 6 5 6 6 7 6 5 6 6 6 6 6 7 6 6 6 6 5 6 6 6 6 5 5 6 6 6 6 6 5 5 6 6 6
1 3 8 7 2 4 4 6 6 7 8 6 4 5 5 3 3 4 5 6 6 6 6 6 6 6 6 6 5 6 6 6 6 5 6 6 6 6 6 6 6 6 6 6
3 3 7 6 1 2 2 5 3 5 5 4 2 3 5 3 4 4 5 4 5 5 5 5 6 5 5 6 6 7 7 7 7 6 6 6 6 6 6 5 5 6 6 5
5 6 9 5 2 3 3 6 2 3 4 4 4 5 5 5 5 4 5 5 5 5 5 5 6 5 5 6 7 8 8 7 7 6 6 6 5 5 5 5 5 5 6 6
5 5 9 4 6 6 6 2 2 3 4 5 6 6 5 5 5 5 5 5 5 5 5 6 5 5 6 7 8 7 7 7 7 6 5 5 5 5 5 4 4 4 5 6
9 8 3 6 6 4 2 3 3 3 4 4 5 5 5 5 5 5 5 5 5 4 6 6 5 4 6 7 7 7 7 7 7 6 5 5 4 4 4 3 3 4 4 5
6 8 6 6 6 5 4 5 5 5 5 4 5 6 5 5 5 5 5 5 5 5 5 6 6 6 6 7 7 6 7 7 6 6 5 5 3 3 3 3 3 4 4 5
6 7 6 5 6 5 5 4 4 4 4 5 5 5 5 5 5 5 5 5 4 5 6 7 7 7 7 7 6 6 6 6 6 5 5 4 4 3 4 4 4 5 4 5
7 5 4 5 4 3 4 5 5 4 4 4 4 5 4 4 4 4 5 5 5 6 6 7 7 7 7 7 5 5 6 6 5 5 5 4 4 5 7 7 10 10 9 9
4 2 3 4 3 2 3 4 4 4 4 4 4 4 4 4 4 4 5 5 6 6 6 6 6 7 7 6 6 5 5 6 5 5 5 5 4 4 6 8 10 10 11 11
2 1 2 2 3 2 2 3 2 2 3 3 3 3 3 3 4 5 5 6 6 6 6 6 6 7 7 6 6 5 5 6 6 4 4 4 4 4 4 5 6 7 9 11
3 3 4 2 2 2 2 2 2 3 3 3 2 3 3 4 5 5 6 6 6 6 6 6 6 7 7 6 6 5 5 4 4 4 4 4 4 4 4 5 5 6 6 8
2 1 1 1 2 2 2 2 3 4 3 3 3 4 4 4 5 5 5 5 5 6 7 6 7 7 6 6 6 5 5 8 7 5 4 4 4 4 4 5 5 5 6 7
1 2 2 3 3 3 3 3 3 4 3 4 4 4 4 4 5 5 5 5 5 6 6 7 7 7 6 5 5 4 4 6 8 6 4 4 4 4 5 5 5 5 5 7
4 4 3 3 3 3 4 3 3 3 3 3 3 3 3 4 5 6 6 6 6 6 6 6 6 7 6 5 4 4 4 4 4 4 4 4 5 4 4 5 6 6 6 7
1 2 1 2 2 2 2 3 3 3 3 2 2 3 4 4 5 5 5 5 5 7 7 7 9 7 6 6 6 4 4 4 4 4 4 6 6 5 5 5 6 6 6 6
1 0 0 1 1 1 2 2 2 2 2 2 2 3 4 4 4 4 4 4 4 5 6 8 7 6 6 6 7 4 4 4 4 4 5 5 5 5 5 6 6 6 6 6
1 0 1 1 1 2 1 1 2 2 2 2 2 3 4 5 4 4 4 5 5 5 6 8 6 5 6 7 7 4 4 4 4 4 5 5 5 5 6 6 6 6 6 6
1 1 1 1 1 2 2 1 1 2 2 2 3 3 4 5 5 4 4 4 6 9 6 5 5 7 9 8 4 3 4 4 4 4 4 4 5 5 6 6 6 6 6 6
1 1 1 1 1 2 2 2 2 2 2 3 3 4 4 4 3 4 5 4 5 8 6 5 8 11 11 6 3 4 4 4 4 4 4 4 5 5 6 6 6 6 6 7
0 0 1 1 1 1 2 3 3 2 3 3 3 4 4 3 4 3 4 7 9 9 6 8 11 11 10 4 4 4 4 4 4 4 5 5 5 5 5 6 6 6 7 7
0 0 1 1 1 2 3 3 3 3 3 3 4 4 3 3 3 5 4 5 8 9 6 8 10 10 7 4 4 4 4 5 5 5 5 5 5 5 6 6 6 7 7 7
1 1 1 1 1 2 2 2 2 3 3 3 4 4 3 3 3 4 4 5 6 8 6 5 6 7 5 5 5 5 5 6 6 6 5 5 6 6 6 7 8 7 7 7
2 1 1 2 2 2 2 2 2 3 3 3 4 4 4 4 4 4 4 4 5 5 5 5 5 5 5 5 6 6 6 6 6 6 6 6 6 6 7 8 7 8 8 8
Wind_Direction
256 270 243 238 233 202 202 210 218 241 248 270 277 273 277 285 293 301 303 305 303 306 311 316 317 317 316 315 318 317 315 311 301 299 298 298 299 298 296 293 292 289 289 288
283 279 272 270 252 225 226 232 237 262 272 269 287 293 287 287 289 293 295 298 303 309 312 310 308 310 314 315 313 311 307 303 302 304 304 302 302 302 302 299 296 294 293 292
277 325 330 276 241 208 211 214 203 233 251 289 298 290 282 281 279 280 287 295 301 303 300 299 298 298 301 304 308 307 302 300 301 301 301 301 303 303 300 300 299 296 292 288
294 11 261 253 196 189 214 243 220 238 262 267 270 282 281 265 260 273 285 294 299 302 303 303 304 304 306 308 307 305 302 298 299 300 298 299 299 294 293 292 291 291 291 285
163 271 279 290 233 176 201 272 224 228 261 276 307 314 287 259 242 260 275 287 290 295 300 304 308 309 313 312 312 310 306 300 297 293 293 294 292 292 294 291 289 289 289 287
159 222 251 259 218 177 115 289 243 208 248 274 352 296 282 301 305 301 301 299 301 308 310 310 311 317 317 314 314 307 305 302 296 290 288 287 288 292 295 292 291 295 296 294
198 231 263 256 192 135 165 262 269 211 240 236 224 244 281 306 308 305 307 308 312 314 313 310 314 322 318 315 308 305 307 306 301 292 286 282 284 288 292 295 295 295 301 304
176 211 255 191 147 186 223 259 229 239 243 246 260 278 290 297 303 312 318 318 318 319 317 318 321 322 316 311 311 314 312 311 309 303 296 294 295 295 294 291 298 304 307 311
197 217 252 180 203 226 205 233 241 241 257 257 269 276 288 295 299 305 309 311 313 312 313 318 319 315 308 310 316 318 318 317 315 315 310 306 299 298 300 299 302 306 307 309
248 260 253 239 240 250 234 237 257 259 259 250 260 272 283 289 297 305 309 309 314 317 315 315 317 315 307 311 317 317 316 318 320 321 316 316 318 317 315 307 304 306 307 309
255 274 297 267 233 244 255 262 270 272 257 251 255 270 272 284 289 295 305 309 310 308 306 308 315 316 318 321 323 320 317 317 321 322 320 328 331 325 319 304 295 304 301 301
230 230 217 260 262 242 249 266 268 271 283 277 256 263 278 281 285 290 298 305 307 305 305 308 313 315 319 321 321 318 318 322 325 323 325 330 334 337 337 333 332 330 326 321
229 237 233 266 284 255 248 269 273 262 263 281 278 264 271 283 287 293 298 301 299 299 301 306 311 313 316 320 321 314 311 318 320 323 327 330 333 334 334 339 341 342 340 336
244 236 272 260 274 288 284 290 288 285 283 278 280 284 283 287 295 298 300 301 301 303 305 306 308 310 315 320 322 319 317 319 324 321 322 325 326 326 326 328 332 337 341 341
256 237 243 275 309 319 318 319 314 302 301 304 300 297 295 295 295 299 305 310 313 312 311 313 314 313 319 321 321 322 322 323 322 322 323 324 325 326 327 326 325 328 333 339
273 265 244 257 275 296 312 297 286 286 290 293 298 297 294 292 295 302 310 315 315 313 314 314 310 311 318 321 322 322 322 326 332 332 332 332 331 329 329 328 326 328 330 331
201 251 261 277 276 277 272 268 267 277 281 282 287 297 305 310 312 313 316 316 307 303 306 308 309 314 317 319 317 316 320 326 330 332 329 326 325 324 325 325 325 326 327 328
228 237 234 242 254 263 275 284 289 292 286 286 300 306 306 306 304 306 313 320 324 322 319 318 318 319 322 322 316 313 317 319 321 321 323 324 322 323 325 325 325 324 324 328
244 246 257 264 259 251 266 281 291 295 298 303 300 294 294 297 299 304 312 320 323 320 323 325 327 332 325 321 321 313 315 314 317 319 320 321 325 326 324 323 322 321 321 323
307 311 332 325 330 297 283 290 293 294 297 301 301 304 308 307 307 309 311 304 298 297 307 319 323 324 321 317 322 315 313 312 313 316 318 316 316 318 320 320 320 319 320 320
288 297 303 312 321 318 298 285 281 288 295 291 284 287 293 300 305 306 308 308 309 312 317 324 331 324 319 321 324 321 315 311 310 309 311 311 314 316 317 318 318 318 318 319
271 271 286 299 309 312 313 307 288 290 300 299 295 296 301 306 310 306 286 280 298 317 324 317 317 319 324 326 325 320 313 309 307 306 306 307 309 311 312 313 313 313 314 315
264 269 287 290 285 295 316 317 299 289 290 292 295 296 292 290 291 299 303 305 307 315 321 314 319 322 327 334 324 317 312 308 304 302 300 300 301 302 304 306 307 309 311 312
327 329 311 317 351 349 324 313 308 300 289 287 288 286 287 296 299 287 281 305 319 320 317 317 325 329 335 341 324 318 311 307 304 300 299 299 299 300 301 302 305 308 308 308
23 5 12 20 347 307 299 312 322 317 311 307 306 307 299 279 279 296 301 303 314 322 317 319 325 330 336 325 319 313 308 303 300 301 296 297 297 298 297 298 299 301 302 303
15 339 308 286 283 293 307 316 314 313 315 314 314 315 311 302 292 296 302 306 310 318 319 315 317 320 319 314 309 306 303 304 307 305 300 296 295 296 296 297 296 296 297 298
20 6 359 351 340 333 323 310 303 305 305 302 302 307 310 311 311 311 310 311 314 315 313 311 313 312 309 308 305 302 300 299 297 296 295 293 292 292 293 293 294 294 295 296
Height
1533 1531 1531 1529 1528 1531 1531 1529 1527 1519 1518 1508 1507 1506 1504 1502 1501 1499 1497 1496 1495 1493 1491 1488 1487 1485 1483 1481 1479 1477 1475 1473 1471 1470 1468 1467 1466 1465 1463 1462 1460 1459 1458 1457
1532 1530 1530 1526 1522 1524 1525 1524 1522 1518 1513 1505 1504 1503 1501 1500 1498 1497 1495 1494 1492 1490 1488 1485 1483 1481 1479 1477 1476 1474 1471 1469 1467 1466 1464 1463 1462 1461 1459 1458 1456 1455 1454 1453
1531 1532 1527 1521 1514 1516 1517 1516 1516 1514 1508 1504 1503 1501 1499 1497 1496 1495 1493 1491 1489 1487 1485 1483 1481 1478 1476 1474 1472 1470 1468 1466 1464 1462 1460 1459 1457 1456 1455 1453 1452 1451 1450 1449
1535 1533 1525 1509 1511 1510 1511 1510 1509 1507 1504 1502 1501 1499 1497 1495 1494 1492 1491 1489 1487 1484 1482 1480 1478 1476 1473 1471 1469 1466 1464 1462 1460 1458 1457 1455 1453 1452 1451 1449 1448 1447 1446 1445
1537 1536 1524 1510 1508 1510 1511 1507 1502 1503 1501 1500 1498 1496 1493 1493 1492 1491 1489 1487 1485 1482 1480 1477 1475 1472 1470 1468 1465 1463 1460 1458 1456 1455 1453 1451 1449 1448 1447 1445 1444 1443 1442 1441
1539 1533 1521 1505 1506 1506 1509 1506 1498 1498 1498 1498 1497 1498 1492 1490 1489 1487 1486 1484 1482 1480 1477 1474 1472 1469 1467 1464 1462 1459 1457 1454 1453 1451 1449 1447 1445 1444 1443 1442 1440 1439 1438 1437
1536 1533 1518 1505 1505 1506 1510 1501 1496 1495 1495 1495 1495 1494 1491 1488 1486 1485 1483 1481 1479 1476 1474 1471 1469 1466 1463 1461 1458 1456 1453 1451 1448 1447 1445 1443 1442 1440 1439 1438 1436 1435 1434 1432
1532 1531 1514 1501 1503 1503 1499 1494 1494 1493 1493 1492 1491 1489 1487 1486 1484 1482 1479 1477 1475 1473 1471 1468 1466 1463 1460 1457 1455 1452 1449 1447 1444 1443 1441 1440 1438 1437 1435 1434 1432 1431 1430 1428
1513 1505 1497 1496 1495 1494 1494 1493 1492 1491 1490 1489 1487 1486 1484 1482 1481 1479 1477 1475 1473 1470 1468 1466 1464 1461 1457 1455 1452 1449 1446 1444 1441 1439 1438 1436 1434 1433 1431 1430 1429 1428 1426 1424
1507 1496 1493 1492 1492 1492 1491 1491 1490 1489 1488 1486 1485 1483 1481 1480 1478 1476 1474 1472 1470 1467 1465 1463 1461 1458 1455 1452 1449 1446 1443 1441 1438 1436 1434 1432 1431 1430 1428 1427 1425 1424 1423 1421
1501 1493 1490 1487 1488 1488 1488 1487 1487 1486 1485 1483 1482 1480 1479 1477 1476 1474 1472 1470 1467 1465 1462 1460 1458 1455 1452 1449 1446 1444 1441 1439 1436 1434 1431 1429 1428 1427 1426 1425 1424 1422 1420 1419
1492 1487 1487 1485 1485 1485 1485 1484 1483 1482 1481 1480 1479 1478 1476 1475 1473 1472 1469 1467 1465 1462 1460 1458 1455 1453 1450 1447 1444 1441 1438 1436 1434 1432 1429 1428 1426 1425 1424 1423 1421 1420 1418 1417
1485 1484 1484 1483 1483 1483 1482 1481 1480 1479 1478 1477 1476 1475 1474 1472 1471 1469 1467 1465 1462 1460 1457 1455 1453 1450 1447 1445 1442 1439 1437 1435 1433 1430 1428 1426 1424 1422 1421 1420 1419 1417 1415 1413
1483 1483 1481 1481 1481 1480 1479 1478 1477 1476 1476 1475 1473 1472 1471 1470 1468 1466 1465 1462 1460 1457 1455 1453 1450 1448 1445 1443 1440 1438 1436 1434 1432 1430 1427 1425 1423 1422 1420 1417 1415 1413 1412 1411
1480 1480 1480 1479 1478 1478 1477 1476 1475 1473 1473 1472 1471 1470 1468 1467 1465 1464 1462 1460 1457 1455 1453 1450 1448 1446 1443 1441 1439 1436 1434 1432 1430 1429 1427 1425 1423 1420 1419 1417 1414 1412 1410 1408
1478 1478 1477 1477 1476 1475 1475 1473 1472 1471 1470 1469 1468 1467 1466 1465 1463 1461 1459 1457 1455 1452 1450 1448 1446 1444 1442 1439 1437 1435 1433 1431 1430 1428 1426 1424 1422 1420 1418 1416 1414 1411 1409 1407
1475 1474 1474 1474 1474 1473 1473 1472 1470 1469 1468 1467 1466 1465 1464 1462 1460 1459 1457 1455 1453 1451 1449 1446 1444 1442 1440 1438 1436 1434 1432 1430 1429 1427 1425 1423 1421 1419 1417 1415 1412 1410 1408 1406
1473 1473 1472 1472 1471 1470 1470 1469 1468 1467 1466 1465 1464 1462 1461 1459 1457 1456 1454 1452 1450 1449 1447 1445 1443 1440 1438 1437 1435 1433 1431 1429 1427 1426 1424 1422 1420 1418 1416 1413 1411 1408 1406 1404
1470 1470 1470 1470 1469 1468 1467 1466 1466 1465 1464 1462 1461 1460 1458 1457 1455 1454 1452 1450 1448 1446 1444 1443 1441 1439 1437 1435 1433 1431 1429 1428 1426 1424 1422 1420 1418 1416 1414 1412 1409 1407 1405 1403
1468 1468 1468 1467 1467 1466 1465 1464 1463 1462 1461 1460 1458 1457 1456 1454 1453 1451 1449 1448 1446 1444 1442 1441 1439 1437 1435 1433 1431 1429 1428 1426 1424 1422 1420 1418 1416 1414 1412 1410 1408 1406 1403 1401
1466 1466 1466 1465 1464 1464 1463 1462 1461 1460 1459 1458 1456 1455 1453 1452 1451 1449 1447 1445 1444 1442 1440 1439 1437 1435 1433 1431 1430 1428 1426 1424 1422 1420 1418 1416 1414 1412 1410 1408 1406 1404 1402 1399
1464 1464 1464 1463 1462 1461 1461 1460 1459 1458 1457 1456 1454 1453 1451 1450 1448 1447 1445 1444 1442 1440 1438 1436 1434 1433 1431 1429 1427 1425 1423 1422 1420 1418 1416 1414 1412 1410 1408 1406 1404 1402 1399 1397
1463 1463 1462 1461 1460 1459 1459 1458 1457 1456 1455 1453 1452 1451 1449 1448 1446 1444 1442 1441 1439 1438 1436 1434 1432 1430 1429 1426 1424 1422 1421 1419 1417 1415 1413 1412 1410 1408 1406 1404 1401 1399 1397 1394
1462 1461 1460 1460 1459 1458 1457 1456 1455 1454 1453 1452 1450 1449 1448 1446 1444 1443 1441 1439 1437 1435 1433 1432 1430 1428 1426 1423 1421 1419 1418 1416 1414 1412 1411 1409 1407 1405 1403 1401 1399 1397 1394 1392
1460 1460 1459 1458 1457 1456 1455 1454 1453 1452 1451 1450 1449 1448 1446 1444 1443 1441 1439 1437 1435 1433 1431 1429 1427 1425 1423 1421 1419 1417 1415 1413 1411 1409 1407 1405 1404 1402 1400 1398 1396 1393 1391 1388
1459 1459 1458 1457 1456 1455 1454 1453 1452 1450 1449 1448 1447 1446 1444 1442 1441 1439 1437 1435 1433 1430 1428 1426 1424 1422 1420 1418 1416 1414 1412 1410 1408 1406 1404 1402 1400 1398 1396 1394 1392 1390 1387 1385
1458 1457 1456 1456 1455 1454 1453 1452 1450 1449 1448 1446 1444 1443 1442 1440 1438 1436 1434 1432 1430 1427 1425 1423 1421 1419 1417 1415 1413 1411 1409 1407 1405 1403 1401 1399 1397 1395 1393 1391 1388 1386 1384 1381